Flag for Czech Republic Weather past 2 weeks in Ostrava, Czech Republic

Now
37 °F

Fog.


Feels Like: 37 °F
Forecast: 39 / 45 °F
Wind: 1 mph from Southeast

Location: Ostrava / Mosnov

Current Time: Feb 27, 2015 at 5:59:20 AM

Latest Report: Feb 27, 2015 at 5:00 AM


Visibility: 2 mi

Pressure: 29.98 "Hg

Humidity: 97%

Dew point: 36 °F

Location of OstravaLocation

Historic Weather in Ostrava — Graph

°F

Ostrava temperature yesterday

Maximum temperature yesterday: 39 °F (at 11:00 PM)
Minimum temperature yesterday: 37 °F (at 8:00 AM)
Average temperature yesterday: 38 °F

Past Weeks' High & Low Weather Summary

 TemperatureHumidityPressure
High49 °F (Feb 15, 2:00 PM)98% (Feb 27, 12:00 AM)30.78 "Hg (Feb 27, 12:00 AM)
Low20 °F (Feb 17, 6:00 AM)42% (Feb 15, 2:00 PM)29.57 "Hg (Feb 23, 5:00 PM)
Average36 °F78%30.15 "Hg
* Reported Feb 12 2:00 AM — Feb 27 2:00 AM, Ostrava, Weather by CustomWeather, © 2015

Note: Actual official high and low records may vary slightly from our data, if they occured in-between our weather recording intervals... More about our weather records

Advertising

Ostrava weather history for previous 24 hours

 ConditionsComfort  
Time TempWeatherWind HumidityBarometerVisibility
2:00 AM
Fri, Feb 27
38 °FFog.1 mph98%30.02 "Hg2 mi
1:00 AM39 °FFog.1 mph98%30.05 "Hg1 mi
12:00 AM39 °FFog.2 mph98%30.05 "Hg1 mi
11:00 PM
Thu, Feb 26
39 °FFog.3 mph97%30.07 "Hg1 mi
10:00 PM39 °FFog.2 mph97%30.09 "Hg1 mi
9:00 PM39 °FFog.2 mph97%30.10 "Hg1 mi
8:00 PM38 °FFog.3 mph97%30.11 "Hg2 mi
7:00 PM38 °FFog.3 mph96%30.12 "Hg2 mi
6:00 PM39 °FFog.3 mph94%30.13 "Hg2 mi
5:00 PM39 °FLow clouds.5 mph94%30.13 "Hg2 mi
4:00 PM39 °FLight rain. Low clouds.5 mph93%30.14 "Hg2 mi
3:00 PM38 °FLight rain. Low clouds.5 mph93%30.14 "Hg2 mi
2:00 PM38 °FLight rain. Low clouds.5 mph93%30.15 "Hg2 mi
1:00 PM38 °FLight rain. Low clouds.6 mph93%30.16 "Hg2 mi
12:00 PM38 °FLight rain. Low clouds.5 mph93%30.16 "Hg2 mi
11:00 AM38 °FLight rain. Low clouds.6 mph93%30.18 "Hg2 mi
10:00 AM37 °FLight rain. Low clouds.7 mph93%30.18 "Hg2 mi
9:00 AM37 °FLight rain. Low clouds.6 mph95%30.18 "Hg1 mi
8:00 AM37 °FLight rain. Low clouds.6 mph93%30.17 "Hg2 mi
Weather by CustomWeather, © 2015

See weather overviewHow to use our weather pages